Zurück zum Katalog

STARLINK-3931

AktivKommunikationVLEO
NORAD 52548·PAYLOAD·🇺🇸 United States

Gestartet May 13, 2022 von Vandenberg Space Force Base

Loading…

Nächste Überflüge (nächste 24 Stunden)

TLE

AktuellSource: CelesTrak SupGP

Epoche: Sep 14, 2026, 22:02 UTC

1 52548C 22051R   26257.91854167 -.00032227  00000+0 -97804-3 0  2572
2 52548  53.1594 347.8314 0001264  76.3176 333.9700 15.33560565    11

Verfolge STARLINK-3931 in Echtzeit mit AllMySat

Download on the App Store